Home   Weather   Cazin   Past weeks
Flag for Bosnia-Herzegovina

Past Weather in Cazin, Bosnia-Herzegovina — Yesterday and Last 2 Weeks

Now
52 °F

Cool.


Feels Like: 52 °F
Forecast: 76 / 54 °F
Wind: 1 mph from Northwest

Location: Gospic

Current Time: Jul 17, 2019 at 3:01:34 am

Latest Report: Jul 17, 2019 at 2:00 am


Visibility: N/A

Pressure: 30.03 "Hg

Humidity: 89%

Dew Point: 49 °F

Location of CazinLocation

Past Weather in Cazin — Graph

°F

Cazin Temperature Yesterday

Maximum temperature yesterday: 75 °F (at 4:00 pm)
Minimum temperature yesterday: 51 °F (at 6:00 am)
Average temperature yesterday: 65 °F

High & Low Weather Summary for the Past Weeks

 TemperatureHumidityPressure
High91 °F (Jul 2, 4:00 pm)97% (Jul 8, 7:00 am)30.13 "Hg (Jul 8, 7:00 am)
Low44 °F (Jul 11, 6:00 am)17% (Jul 2, 4:00 pm)29.71 "Hg (Jul 7, 2:00 pm)
Average68 °F61%29.91 "Hg
* Reported Jul 1 11:00 pm — Jul 16 11:00 pm, Cazin. Weather by CustomWeather, © 2019

Note: Actual official high and low records may vary slightly from our data, if they occured in-between our weather recording intervals... More about our weather records

Advertising

Cazin Weather History for the Previous 24 Hours

Scroll right to see more
 ConditionsComfort  
Time TempWeatherWind HumidityBarometerVisibility
11:00 pm
Tue, Jul 16
57 °FCool.1 mph76%29.99 "HgN/A
10:00 pm61 °FClear.1 mph60%29.93 "Hg6 mi
9:00 pm65 °FClear.1 mph47%29.91 "Hg19 mi
8:00 pm71 °FSunny.2 mph35%29.86 "Hg31 mi
7:00 pm72 °FMild.3 mph38%29.89 "HgN/A
6:00 pm73 °FMild.5 mph36%29.88 "HgN/A
5:00 pm74 °FMild.6 mph38%29.88 "HgN/A
4:00 pm75 °FMild.3 mph35%29.87 "HgN/A
3:00 pm73 °FPassing clouds.5 mph30%29.86 "Hg31 mi
2:00 pm73 °FScattered clouds.2 mph30%29.86 "Hg31 mi
1:00 pm72 °FPassing clouds.2 mph31%29.88 "Hg31 mi
12:00 pm69 °FPassing clouds.2 mph33%29.88 "Hg31 mi
11:00 am69 °FScattered clouds.2 mph37%29.88 "Hg25 mi
10:00 am69 °FScattered clouds.1 mph42%29.88 "Hg25 mi
9:00 am65 °FPassing clouds.1 mph62%29.89 "Hg25 mi
8:00 am58 °FPassing clouds.1 mph81%29.91 "Hg25 mi
7:00 am54 °FPassing clouds.1 mph94%29.93 "Hg19 mi
6:00 am51 °FPassing clouds.1 mph93%29.94 "Hg19 mi
5:00 am52 °FPassing clouds.1 mph92%29.92 "Hg12 mi
Weather by CustomWeather, © 2019

See weather overview